Regional Weather Roundup
Issued by NWS Goodland, KS

Home | Current Version | Previous Version | Graphics & Text | Print | Product List | Glossary On
Versions: 1 2 3 4 5 6 7 8 9 10 11 12 13 14 15 16 17 18 19 20 21 22 23 24 25 26 27 28 29 30 31 32 33 34 35 36 37 38 39 40 41 42 43 44 45 46 47 48 49 50
000
ASUS43 KGLD 031208
RWRGLD

GOODLAND FORECAST AREA HOURLY WEATHER ROUNDUP
NATIONAL WEATHER SERVICE GOODLAND KS
600 AM MDT TUE MAY 03 2016

...OFFICIAL OBSERVATIONS...

CITY           SKY/WX    TMP DP  RH WIND       PRES   REMARKS
GOODLAND KS    MOCLDY    41  39  93 NW8       30.06R
HILL CITY KS   MOCLDY    47  41  80 CALM      30.03R
IMPERIAL NEB   CLEAR     40  38  93 NW5       30.07R
MCCOOK NEB     CLEAR     38  37  97 NW6       30.05R
AKRON CO       CLEAR     38  32  79 NW12      30.11R
BURLINGTON CO  MOCLDY    42  34  73 NW9       30.08R
LIMON CO       PTCLDY    34  31  88 NW10      30.14S
$$

...UNOFFICIAL OBSERVATIONS...

CITY           SKY/WX    TMP DP  RH WIND       PRES   REMARKS
COLBY KS       PTCLDY    43  43 100 NW6       30.07R
LENORA KS        N/A     45  32  60 MISG        N/A
NORTON KS      PTCLDY    48  39  71 NW8       30.02R
SHARON SPRINGS   N/A     43  37  80 NW8         N/A
KIT CARSON CO    N/A     40  34  80 MISG        N/A
YUMA CO          N/A     38  34  87 NW9         N/A
$$




USA.gov is the U.S. government's official web portal to all federal, state and local government web resources and services.